[[{"header":{"parameterUnit":"m.s-1","parameterCategory":1,"la1":30.2991,"la2":30.254,"lo1":-89.0895,"lo2":-89.0444,"dy":0.0017,"dx":0.0017,"nx":28,"ny":28,"refTime":"2024-08-13T21:00:00:Z","depth":0,"parameterNumber":2,"parameterNumberName":"U-component_of_WINDS"},"data":[0,0,0,0,0,0,0,0,0,0,0,0,0,0,0,0,0,0,0,0,0,0,0,0,0,0,0,0,0,0,0,0,0,0,0,0,0,0,0,0,0,0,0,0,0,0,0,0,0,0,0,0,0,0,0,0,0,0,0.1875,0.1875,0,0.1893,0.1893,0.1893,0.185,0.1848,0.1847,0.1846,0.1869,0.1871,0.1873,0,0,0,0,0,0,0,0,0,0,0,0,0,0.1807,0.1808,0.1875,0.1875,0.1875,0.1893,0.1893,0.1893,0.185,0.1848,0.1847,0.1845,0.1869,0.1871,0.1873,0,0,0,0,0,0,0,0,0,0,0,0,0,0.1832,0.1809,0.1875,0.1856,0.1854,0.1892,0.1893,0.1893,0.185,0.1848,0.1846,0.1844,0.1868,0.1871,0.1874,0.1933,0,0,0.1882,0.1884,0,0,0,0,0,0,0,0,0.183,0.1834,0.1858,0.1857,0.1855,0.1867,0.1877,0.1907,0.1851,0.1852,0.1846,0.1843,0.1871,0.1873,0.1881,0.1934,0.1935,0.1883,0.1884,0.1886,0.1886,0,0,0,0,0,0,0,0.1829,0.1833,0.1882,0.1859,0.1857,0.1847,0.1849,0.1883,0.1873,0.1852,0.1849,0.1851,0.1869,0.1878,0.1881,0.1935,0.1883,0.1885,0.1887,0.1888,0.2037,0.2039,0,0,0,0,0,0,0.1829,0.1832,0.1881,0.1882,0.1837,0.185,0.1852,0.1865,0.1872,0.1871,0.1853,0.1849,0.1875,0.1878,0.1882,0.1952,0.1886,0.1888,0.189,0.2035,0.2037,0.204,0,0,0,0,0,0,0.1828,0.1834,0.1881,0.1856,0.1862,0.1854,0.1869,0.1867,0.1876,0.1873,0.1871,0.1864,0.1873,0.1878,0.192,0.1953,0.189,0.1892,0.2032,0.2035,0.2039,0.2093,0,0,0,0,0,0,0.1826,0.1833,0.1856,0.1857,0.1863,0.1918,0.1871,0.1869,0.188,0.1875,0.1883,0.1882,0.1872,0.1916,0.1923,0.1955,0.1894,0.2029,0.2034,0.2037,0.2089,0.2098,0.2106,0,0,0,0,0,0.1824,0.1872,0.1857,0.1863,0.189,0.192,0.1923,0.1909,0.1883,0.1906,0.1903,0.1882,0.1947,0.1921,0.1928,0.1962,0.2027,0.2032,0.2037,0.2085,0.2096,0.2106,0,0,0,0,0,0,0.1877,0.1872,0.1855,0.1905,0.1913,0.1912,0.1941,0.1922,0.1939,0.1934,0.1916,0.1918,0.1964,0.1966,0.1937,0.2019,0.1983,0.199,0.2017,0.2027,0.2036,0.2036,0.1897,0,0,0,0,0,0.1894,0.1917,0.1911,0.1956,0.196,0.195,0.1962,0.1949,0.1958,0.1962,0.1963,0.1973,0.1995,0.2011,0.2031,0.2087,0.2089,0.2114,0.2123,0.213,0.2138,0.2168,0.2179,0.2056,0.2056,0.2056,0,0,0.193,0.193,0.1947,0.1966,0.1971,0.1997,0.1953,0.1982,0.2001,0.1967,0.2007,0.2007,0.2017,0.2066,0.2088,0.207,0.2171,0.2136,0.2142,0.2146,0.2174,0.2186,0.2196,0.206,0.2059,0.2058,0,0,0.2011,0.2012,0.2049,0.2054,0.206,0.2052,0.2061,0.2062,0.2061,0.2099,0.2074,0.2096,0.2135,0.2144,0.2153,0.2232,0.2214,0.2239,0.2287,0.2316,0.2326,0.2335,0.2365,0.2376,0.2245,0.2245,0.2246,0,0.2057,0.2092,0.2071,0.2102,0.2111,0.2077,0.2116,0.2121,0.2135,0.2143,0.2122,0.2169,0.2173,0.2224,0.2243,0.2251,0.2262,0.224,0.2326,0.2334,0.2342,0.2371,0.2382,0.2249,0.2248,0.2248,0.2248,0,0.2149,0.2174,0.2203,0.2215,0.2227,0.2262,0.2246,0.2262,0.2247,0.2241,0.2281,0.2284,0.2305,0.2315,0.2302,0.2364,0.2352,0.2328,0.2292,0.2357,0.2384,0.2395,0.2253,0.2252,0.2251,0.225,0,0,0.2269,0.2264,0.2276,0.228,0.2283,0.2303,0.2334,0.2352,0.2366,0.2375,0.2403,0.2435,0.2412,0.2423,0.241,0.2435,0.2499,0.2408,0.2408,0.2427,0.2569,0.259,0.2603,0.2485,0.2487,0.2488,0.2569,0,0.2349,0.2403,0.2383,0.2439,0.2463,0.2428,0.2456,0.2461,0.2456,0.2476,0.247,0.2494,0.246,0.2467,0.249,0.2487,0.2528,0.248,0.2513,0.2515,0.2516,0.2616,0.2639,0.2715,0.2579,0.2581,0.2582,0,0.2453,0.2463,0.2521,0.2518,0.2527,0.2552,0.2566,0.2584,0.2589,0.2583,0.2593,0.2574,0.2606,0.2566,0.2611,0.2578,0.259,0.259,0.2592,0.2598,0.2555,0.2628,0.2739,0.2752,0.2598,0.2597,0.2596,0,0.2537,0.2566,0.2604,0.2608,0.2605,0.2624,0.2623,0.2625,0.2637,0.2649,0.2656,0.2672,0.2682,0.2695,0.2681,0.2653,0.2729,0.2687,0.2727,0.2728,0.2748,0.2748,0.2866,0.275,0.275,0.2749,0.2749,0,0.2632,0.267,0.2642,0.2666,0.2706,0.2682,0.2723,0.2719,0.272,0.2744,0.2714,0.2737,0.2715,0.2736,0.2724,0.2764,0.2768,0.2766,0.2763,0.2771,0.2772,0.2782,0.2777,0.2752,0.2752,0.2751,0.2751,0,0.2736,0.2718,0.2758,0.275,0.2748,0.2779,0.2773,0.2795,0.2785,0.2815,0.282,0.2806,0.2829,0.2814,0.2838,0.283,0.2883,0.2871,0.2881,0.288,0.2921,0.2919,0.3053,0.307,0.2939,0.294,0.2941,0,0.28,0.2828,0.2821,0.2833,0.2834,0.2855,0.2865,0.2841,0.2853,0.2858,0.2881,0.29,0.2915,0.2953,0.2946,0.2963,0.2954,0.2999,0.2957,0.2964,0.2959,0.2959,0.2962,0.301,0.3012,0.3013,0.3014,0,0.2917,0.2905,0.2921,0.2932,0.2945,0.2953,0.2959,0.2971,0.2947,0.2962,0.2983,0.2995,0.3017,0.3037,0.3051,0.3052,0.3031,0.3026,0.3037,0.3047,0.3053,0.3053,0.2909,0.3025,0.3024,0.3023,0.3022,0.3022,0.3005,0.3028,0.3026,0.3043,0.3044,0.305,0.307,0.3061,0.3078,0.3093,0.3077,0.3104,0.3106,0.3122,0.3125,0.3146,0.3128,0.3143,0.3148,0.3153,0.316,0.3046,0.3148,0.3148,0.3148,0.3147,0.3147,0,0.3123,0.3118,0.3134,0.3142,0.3156,0.3128,0.3133,0.3147,0.317,0.3173,0.3186,0.3211,0.3229,0.3222,0.3239,0.3257,0.3247,0.3263,0.3264,0.3264,0.3174,0.3164,0.327,0.327,0.327,0.327,0.327,0.327,0.3186,0.3223,0.3211,0.3248,0.3243,0.3267,0.3272,0.3278,0.3279,0.3307,0.3322,0.3315,0.3314,0.3329,0.3345,0.3343,0.3352,0.3372,0.3366,0.3283,0.3271,0.3259,0.325,0.3373,0.3373,0.3455,0.3456,0.3457]},{"header":{"parameterUnit":"m.s-1","parameterCategory":1,"la1":30.2991,"la2":30.254,"lo1":-89.0895,"lo2":-89.0444,"dy":0.0017,"dx":0.0017,"nx":28,"ny":28,"refTime":"2024-08-13T21:00:00:Z","depth":0,"parameterNumber":3,"parameterNumberName":"V-component_of_WINDS"},"data":[0,0,0,0,0,0,0,0,0,0,0,0,0,0,0,0,0,0,0,0,0,0,0,0,0,0,0,0,0,0,0,0,0,0,0,0,0,0,0,0,0,0,0,0,0,0,0,0,0,0,0,0,0,0,0,0,0,0,-0.4276,-0.4278,0,-0.4404,-0.4406,-0.4407,-0.4497,-0.4498,-0.4499,-0.4499,-0.4629,-0.4632,-0.4634,0,0,0,0,0,0,0,0,0,0,0,0,0,-0.4109,-0.4112,-0.4276,-0.4278,-0.4279,-0.4404,-0.4406,-0.4407,-0.4497,-0.4498,-0.4499,-0.45,-0.4628,-0.4631,-0.4635,0,0,0,0,0,0,0,0,0,0,0,0,0,-0.4204,-0.4113,-0.4276,-0.4339,-0.4346,-0.4404,-0.4406,-0.4408,-0.4497,-0.4498,-0.4499,-0.45,-0.4627,-0.4631,-0.4635,-0.4639,0,0,-0.4648,-0.465,0,0,0,0,0,0,0,0,-0.4198,-0.421,-0.4328,-0.4335,-0.4343,-0.4436,-0.4395,-0.4485,-0.4497,-0.444,-0.4499,-0.4501,-0.4564,-0.4573,-0.4595,-0.4645,-0.4651,-0.4648,-0.4651,-0.4652,-0.4654,0,0,0,0,0,0,0,-0.4192,-0.4205,-0.4327,-0.433,-0.4339,-0.4361,-0.4376,-0.4412,-0.4494,-0.4445,-0.4451,-0.4465,-0.4568,-0.459,-0.4598,-0.4653,-0.4648,-0.4652,-0.4654,-0.4656,-0.4715,-0.4714,0,0,0,0,0,0,-0.4175,-0.4199,-0.4323,-0.4331,-0.4272,-0.4363,-0.438,-0.4405,-0.4494,-0.4508,-0.4464,-0.4469,-0.4583,-0.4593,-0.4603,-0.4615,-0.4652,-0.4656,-0.4659,-0.4716,-0.4715,-0.4714,0,0,0,0,0,0,-0.4171,-0.4186,-0.4318,-0.4267,-0.4285,-0.4365,-0.4393,-0.4407,-0.443,-0.4509,-0.4524,-0.4472,-0.4584,-0.4597,-0.463,-0.4621,-0.4658,-0.4662,-0.4717,-0.4716,-0.4715,-0.4637,0,0,0,0,0,0,-0.4166,-0.4184,-0.4186,-0.4266,-0.4288,-0.4342,-0.4392,-0.4409,-0.4437,-0.4444,-0.452,-0.4534,-0.4586,-0.4623,-0.4634,-0.4627,-0.4665,-0.4718,-0.4717,-0.4715,-0.4641,-0.4634,-0.4627,0,0,0,0,0,-0.416,-0.4158,-0.4186,-0.42,-0.4292,-0.4341,-0.4353,-0.4414,-0.4435,-0.4439,-0.449,-0.4532,-0.462,-0.4626,-0.4639,-0.4633,-0.4719,-0.4717,-0.4715,-0.4644,-0.4635,-0.4627,0,0,0,0,0,0,-0.4074,-0.417,-0.4201,-0.4226,-0.4275,-0.4356,-0.4362,-0.4402,-0.4445,-0.445,-0.4523,-0.4539,-0.4564,-0.4602,-0.4607,-0.4643,-0.4675,-0.4675,-0.4617,-0.4609,-0.4602,-0.4592,-0.4669,0,0,0,0,0,-0.4058,-0.409,-0.4172,-0.4186,-0.4209,-0.4281,-0.4305,-0.4347,-0.44,-0.4421,-0.4475,-0.4525,-0.4565,-0.4589,-0.463,-0.4648,-0.4666,-0.465,-0.4643,-0.4637,-0.4636,-0.4649,-0.4643,-0.4707,-0.4707,-0.4707,0,0,-0.4025,-0.4081,-0.4097,-0.417,-0.4213,-0.4245,-0.4298,-0.4329,-0.4353,-0.4426,-0.446,-0.4502,-0.4563,-0.4588,-0.4602,-0.462,-0.4623,-0.4634,-0.4629,-0.4631,-0.4647,-0.464,-0.4635,-0.4706,-0.4706,-0.4706,0,0,-0.3981,-0.4027,-0.4044,-0.4086,-0.4151,-0.4199,-0.4203,-0.428,-0.431,-0.4346,-0.4402,-0.4432,-0.4498,-0.4539,-0.4569,-0.4543,-0.4583,-0.4554,-0.4517,-0.4529,-0.4524,-0.452,-0.4511,-0.4507,-0.4553,-0.4553,-0.4553,0,-0.3931,-0.3981,-0.4047,-0.4075,-0.4106,-0.4175,-0.4193,-0.4231,-0.4305,-0.4325,-0.4344,-0.443,-0.4476,-0.4512,-0.4506,-0.4528,-0.4535,-0.4545,-0.452,-0.4516,-0.4513,-0.4505,-0.4502,-0.4549,-0.455,-0.455,-0.455,0,-0.3917,-0.3951,-0.3957,-0.4028,-0.406,-0.4082,-0.4152,-0.4176,-0.4216,-0.4262,-0.4299,-0.4356,-0.441,-0.4423,-0.4461,-0.4465,-0.4475,-0.4506,-0.454,-0.4502,-0.4496,-0.4493,-0.4543,-0.4545,-0.4546,-0.4547,0,0,-0.3821,-0.393,-0.3931,-0.3964,-0.4042,-0.4069,-0.4096,-0.4149,-0.4169,-0.4218,-0.4242,-0.4298,-0.4328,-0.4361,-0.4406,-0.4417,-0.4393,-0.4447,-0.445,-0.4435,-0.4401,-0.4376,-0.4372,-0.4421,-0.442,-0.442,-0.4396,0,-0.3788,-0.3839,-0.39,-0.393,-0.3963,-0.403,-0.4053,-0.4103,-0.4148,-0.4182,-0.4231,-0.4269,-0.4306,-0.4327,-0.4341,-0.4393,-0.4387,-0.4395,-0.4443,-0.4444,-0.4425,-0.4369,-0.4343,-0.4317,-0.4394,-0.4394,-0.4393,0,-0.3757,-0.3804,-0.3837,-0.3914,-0.393,-0.3949,-0.4004,-0.4036,-0.4095,-0.4126,-0.4165,-0.4213,-0.4245,-0.4275,-0.432,-0.4325,-0.4348,-0.4377,-0.4378,-0.4384,-0.4416,-0.4373,-0.431,-0.4306,-0.439,-0.439,-0.4391,0,-0.3683,-0.3755,-0.3785,-0.3812,-0.3901,-0.3913,-0.3951,-0.4011,-0.404,-0.4088,-0.4108,-0.4158,-0.4186,-0.4224,-0.4285,-0.4302,-0.4324,-0.4359,-0.4351,-0.4349,-0.4351,-0.435,-0.4291,-0.4367,-0.4367,-0.4367,-0.4367,0,-0.364,-0.3658,-0.3753,-0.3771,-0.3793,-0.3864,-0.3884,-0.3928,-0.3981,-0.4009,-0.407,-0.4095,-0.4175,-0.4209,-0.4257,-0.4287,-0.4299,-0.4326,-0.4338,-0.432,-0.4317,-0.4336,-0.4339,-0.4366,-0.4367,-0.4367,-0.4367,0,-0.3561,-0.3625,-0.3662,-0.3745,-0.3766,-0.3779,-0.3849,-0.387,-0.3918,-0.3953,-0.3965,-0.4042,-0.4086,-0.4151,-0.4214,-0.4247,-0.4269,-0.429,-0.4249,-0.4256,-0.4244,-0.4244,-0.4195,-0.4192,-0.4269,-0.4269,-0.4268,0,-0.3529,-0.3544,-0.3629,-0.3652,-0.3688,-0.3725,-0.3756,-0.3826,-0.3855,-0.3924,-0.3936,-0.3985,-0.4028,-0.4095,-0.4156,-0.4205,-0.4227,-0.4207,-0.4235,-0.4216,-0.4227,-0.4225,-0.4227,-0.4199,-0.4198,-0.4197,-0.4196,0,-0.3465,-0.3497,-0.3538,-0.3591,-0.3625,-0.367,-0.3717,-0.3733,-0.3814,-0.3843,-0.3889,-0.3923,-0.3988,-0.4036,-0.4094,-0.4134,-0.4178,-0.4187,-0.4188,-0.4169,-0.4145,-0.4158,-0.423,-0.4188,-0.4188,-0.4189,-0.419,-0.419,-0.3409,-0.3426,-0.3488,-0.3533,-0.3576,-0.362,-0.3643,-0.3696,-0.3735,-0.3794,-0.3834,-0.3878,-0.3938,-0.402,-0.4058,-0.4093,-0.4112,-0.4113,-0.4113,-0.4112,-0.4106,-0.414,-0.4104,-0.4105,-0.4105,-0.4105,-0.4106,0,-0.3348,-0.3392,-0.3432,-0.3497,-0.3532,-0.3573,-0.3628,-0.3654,-0.3693,-0.3745,-0.3786,-0.384,-0.3887,-0.3953,-0.4005,-0.4021,-0.4043,-0.4032,-0.4031,-0.404,-0.4086,-0.408,-0.4014,-0.4014,-0.4014,-0.4014,-0.4014,-0.4014,-0.332,-0.3352,-0.3391,-0.3445,-0.349,-0.3534,-0.3562,-0.3603,-0.3645,-0.3702,-0.3742,-0.3785,-0.3843,-0.39,-0.3945,-0.3964,-0.398,-0.3963,-0.3987,-0.4028,-0.4037,-0.4044,-0.4039,-0.3966,-0.3966,-0.3938,-0.3938,-0.3938]}]]